Lexington Weather

Lexington, Massachusetts, USA

44°F
5/12/2021 4:24am 
  • Lexington Conditions: Clear
  • Temperature: 44.4°F / 6.9°CColder 0.7°F than last hour.
  • Dew Point: 32.5°FIncreased 0.5°Fsince last hour.
  • Relative Humidity: 63%Increased 3.0% since last hour.
  • Wind: Wind from WNW WNW 1 mph, 10-min avg: 1 mph, gust: 3 mph
  • Barometer: 29.92 in Steady
  • Visibility: 10 miles
  • Rain Today: 0.00 in
  •   

Regional Weather Roundup
for Boston / Norton, MA

        
000
ASUS41 KBOX 071404
RWRBOX

REGIONAL WEATHER ROUNDUP
NATIONAL WEATHER SERVICE BOSTON/NORTON MA
1000 AM EDT FRI MAY 07 2021

NOTE:  "FAIR" INDICATES FEW OR NO CLOUDS BELOW 12,000 FEET WITH NO 
SIGNIFICANT WEATHER AND/OR OBSTRUCTIONS TO VISIBILITY.

MAZALL-071500-
EASTERN MASSACHUSETTS
  
CITY           SKY/WX    TMP DP  RH WIND       PRES   REMARKS
BOSTON         MOSUNNY   55  40  56 E12       30.00R                  
BEVERLY        SUNNY     57  39  51 E13       29.99R                  
LAWRENCE       SUNNY     56  36  47 E8        30.00S                  
BEDFORD        SUNNY     58  35  42 E7        29.97S                  
BLUE HILL        N/A     55  38  52 NE12      29.96S                  
NORWOOD        SUNNY     59  39  47 VRB6      29.97S                  
MARSHFIELD     SUNNY     57  45  62 NE8       29.99R                  
PLYMOUTH       SUNNY     58  38  47 E13G18    29.97R                  
TAUNTON        NOT AVBL                                               
NEW BEDFORD    SUNNY     58  40  51 SE9       29.96R                  
$$

MAZALL-071500-
CAPE COD AND THE ISLANDS
  
CITY           SKY/WX    TMP DP  RH WIND       PRES   REMARKS
FALMOUTH       SUNNY     55  36  47 E17       29.98R                  
HYANNIS        SUNNY     58  38  47 E12G18    29.96R                  
CHATHAM        SUNNY     55  39  54 E13G18    29.99S                  
PROVINCETOWN   SUNNY     57  36  45 E17       30.00R                  
NANTUCKET      SUNNY     59  40  49 E16       29.96S                  
MARTHAS VNYRD  SUNNY     58  39  49 SE18      29.96R                  
$$
 
MAZALL-071500-
CENTRAL AND WESTERN MASSACHUSETTS
  
CITY           SKY/WX    TMP DP  RH WIND       PRES   REMARKS
WORCESTER      SUNNY     55  30  38 E8        29.96F                  
FITCHBURG      SUNNY     56  31  38 E8        29.98F                  
ORANGE         SUNNY     57  27  31 E9        29.97F                  
SPRINGFIELD    NOT AVBL                                               
WESTFIELD      SUNNY     57  31  37 VRB6      29.95F                  
NORTH ADAMS    SUNNY     56  27  32 E9        29.95F                  
PITTSFIELD     SUNNY     56  26  31 MISG      29.92F                  
$$
 
RIZALL-071500-
RHODE ISLAND
  
CITY           SKY/WX    TMP DP  RH WIND       PRES   REMARKS
PROVIDENCE     MOSUNNY   59  40  49 E9        29.96S                  
NEWPORT        SUNNY     56  42  59 E12       29.96R                  
BLOCK ISLAND   SUNNY     52  46  80 E13       29.95S                  
SMITHFIELD       N/A     59  38  45 E7        29.96S                  
WESTERLY       SUNNY     56  40  55 E10G21    29.94S                  
$$
 
CTZALL-071500-
CONNECTICUT
  
CITY           SKY/WX    TMP DP  RH WIND       PRES   REMARKS
BRADLEY INTL   MOSUNNY   59  30  33 N7        29.94F                  
HARTFORD       MOSUNNY   60  34  37 N5        29.93F                  
BRIDGEPORT     SUNNY     59  32  36 NE14      29.92F                  
DANBURY        SUNNY     59  32  36 VRB6      29.93F                  
GROTON         SUNNY     58  41  53 E14       29.92F                  
NEW HAVEN      SUNNY     62  33  33 NE9       29.92F                  
CHESTER        FAIR      61  30  31 E9        29.92S                  
MERIDEN          N/A     59  31  34 NE5       29.93F                  
WILLIMANTIC    SUNNY     59  33  37 E9        29.94F                  
OXFORD         SUNNY     56  32  40 NE14G20   29.93F                  
$$

MEZ002-015-021-024-NHZ003-005-008-011-012-014-VTZ005-008-071500-
NORTHERN NEW ENGLAND
  
CITY           SKY/WX    TMP DP  RH WIND       PRES   REMARKS
PORTLAND ME    MOSUNNY   53  27  36 NE6       30.01F                  
BANGOR ME      MOSUNNY   51  29  42 NW8       30.00R                  
CONCORD NH     SUNNY     56  30  37 VRB5      29.99F                  
MANCHESTER NH  MOSUNNY   57  30  35 E7        29.98S                  
NASHUA NH      SUNNY     56  32  40 NE8       29.99F                  
PORTSMOUTH NH  MOSUNNY   54  23  30 E9        30.02R                  
JAFFREY NH     SUNNY     54  26  34 VRB5      29.97F                  
KEENE NH       SUNNY     55  26  32 CALM      29.97F                  
BURLINGTON VT  MOSUNNY   54  30  40 CALM      29.98F                  
MT. WASHINGTON MOSUNNY   27  14  59 SW2         N/A                   
$$

NYZ052-076-071500-
EASTERN NEW YORK
  
CITY           SKY/WX    TMP DP  RH WIND       PRES   REMARKS
ALBANY         MOSUNNY   52  34  50 VRB3      29.96F                  
NEW YORK CITY  PTSUNNY   58  35  42 NE12      29.92F                  
$$
 
ANZALL-071500-
MARINE OBSERVATIONS
  
STATION/POSITION TIME  TEMP    WIND        PRES    VSBY  WAVE
                       AIR SEA DIR/SP/G                  HT/PER
                 (UTC) (F)     (DEG/KT/KT) (MB)    (MI)  (FT/S)
BOSTON BUOY      1340   48 48   60/  8/ 10 1015.5R
BUZZARDS BAY     1300          100/ 12/ 13 1015.0R
NANTUCKET SOUND  1340      52                N/A
MASS BAY-STELLWA 1304   48      80/ 10/ 12 1014.4S  1 7/8  1/ 8
ISLE OF SHOALS   1300   48      70/ 15/ 17 1015.2S
S OF BLOCK IS    1326      49                N/A           2/ 9
$$

......................KEY.........................
  SKY/WX - SKY CONDITION/PRESENT WEATHER
  TMP    - TEMPERATURE IN FAHRENHEIT
  DWPT   - DEWPOINT IN FAHRENHEIT
  RH     - RELATIVE HUMIDITY IN PERCENT
  WIND   - DIRECTION AND SPEED IN MPH
  PRES   - MEAN SEA LEVEL PRESSURE IN INCHES OF HG
  WCI    - WIND CHILL INDEX
  VSB    - VISIBILITY IN MILES
  HX     - HEAT INDEX
  TC     - TEMPERATURE IN CELSIUS
  VRB    - VARIABLE WIND DIRECTION
  N/A    - NOT AVAILABLE
  
      

Other recent Regional Weather Roundups

Wed May 12, 4:04am

Wed May 12, 3:04am

Wed May 12, 2:04am

Wed May 12, 1:04am

Wed May 12, 12:05am

Tue May 11, 11:05pm

Tue May 11, 10:04pm

Tue May 11, 9:05pm

Tue May 11, 8:05pm

Tue May 11, 7:04pm

Tue May 11, 6:04pm

Tue May 11, 5:04pm

Tue May 11, 4:05pm

Tue May 11, 3:04pm

Tue May 11, 2:05pm

Tue May 11, 1:04pm

Tue May 11, 12:05pm

Tue May 11, 11:05am

Tue May 11, 10:04am

Tue May 11, 9:04am

Tue May 11, 8:04am

Tue May 11, 7:05am

Tue May 11, 6:04am

Tue May 11, 5:04am

Tue May 11, 4:04am

Tue May 11, 3:04am

Tue May 11, 2:04am

Tue May 11, 1:04am

Tue May 11, 12:04am

Mon May 10, 11:04pm

Mon May 10, 10:04pm

Mon May 10, 9:05pm

Mon May 10, 8:04pm

Mon May 10, 7:05pm

Mon May 10, 6:04pm

Mon May 10, 5:04pm

Mon May 10, 4:04pm

Mon May 10, 3:04pm

Mon May 10, 2:04pm

Mon May 10, 1:04pm

Mon May 10, 12:04pm

Mon May 10, 11:05am

Mon May 10, 10:04am

Mon May 10, 9:04am

Mon May 10, 8:04am

Mon May 10, 7:04am

Mon May 10, 6:04am

Mon May 10, 5:05am

Mon May 10, 4:04am

Mon May 10, 3:04am

Mon May 10, 2:04am

Mon May 10, 1:04am

Mon May 10, 12:04am

Sun May 9, 11:04pm

Sun May 9, 10:04pm

Sun May 9, 9:04pm

Sun May 9, 8:04pm

Sun May 9, 7:05pm

Sun May 9, 6:04pm

Sun May 9, 5:04pm

Sun May 9, 4:04pm

Sun May 9, 3:04pm

Sun May 9, 2:04pm

Sun May 9, 1:05pm

Sun May 9, 12:04pm

Sun May 9, 11:05am

Sun May 9, 10:04am

Sun May 9, 9:04am

Sun May 9, 8:04am

Sun May 9, 7:04am

Sun May 9, 6:04am

Sun May 9, 5:04am

Sun May 9, 4:04am

Sun May 9, 3:04am

Sun May 9, 2:04am

Sun May 9, 1:05am

Sun May 9, 12:04am

Sat May 8, 11:05pm

Sat May 8, 10:04pm

Sat May 8, 9:05pm

Sat May 8, 8:04pm

Sat May 8, 7:04pm

Sat May 8, 6:04pm

Sat May 8, 5:05pm

Sat May 8, 4:04pm

Sat May 8, 3:05pm

Sat May 8, 2:05pm

Sat May 8, 1:05pm

Sat May 8, 12:04pm

Sat May 8, 11:05am

Sat May 8, 10:04am

Sat May 8, 9:04am

Sat May 8, 8:04am

Sat May 8, 7:04am

Sat May 8, 6:04am

Sat May 8, 5:04am

Sat May 8, 4:04am

Sat May 8, 3:04am

Sat May 8, 2:04am

Sat May 8, 1:05am

Sat May 8, 12:04am

Fri May 7, 11:04pm

Fri May 7, 10:05pm

Fri May 7, 9:04pm

Fri May 7, 8:04pm

Fri May 7, 7:05pm

Fri May 7, 6:04pm

Fri May 7, 5:05pm

Fri May 7, 4:04pm

Fri May 7, 3:04pm

Fri May 7, 2:05pm

Fri May 7, 1:04pm

Fri May 7, 12:04pm

Fri May 7, 11:05am

Fri May 7, 9:04am

Fri May 7, 8:05am

Fri May 7, 7:04am

Fri May 7, 6:04am

Fri May 7, 5:04am

Fri May 7, 4:04am

Fri May 7, 3:04am

Fri May 7, 2:05am

Fri May 7, 1:04am

Fri May 7, 12:05am

Thu May 6, 11:04pm

Thu May 6, 10:04pm

Thu May 6, 9:05pm

Thu May 6, 8:04pm

Thu May 6, 7:04pm

Thu May 6, 6:04pm

Thu May 6, 5:05pm

Thu May 6, 4:04pm

Thu May 6, 3:04pm

Thu May 6, 2:05pm

Thu May 6, 1:04pm

Thu May 6, 12:04pm

Thu May 6, 11:04am

Thu May 6, 10:04am

Thu May 6, 9:04am

Thu May 6, 8:04am

Thu May 6, 7:04am

Thu May 6, 6:04am

Thu May 6, 5:04am

Thu May 6, 4:04am

Thu May 6, 3:04am

Thu May 6, 2:05am

Thu May 6, 1:04am

Thu May 6, 12:05am

Wed May 5, 11:04pm

Wed May 5, 10:04pm

Wed May 5, 9:05pm

Wed May 5, 8:04pm

Wed May 5, 7:05pm

Wed May 5, 6:04pm

Wed May 5, 5:04pm

Wed May 5, 4:04pm

Wed May 5, 3:04pm

Wed May 5, 2:05pm

Wed May 5, 1:05pm

Wed May 5, 12:04pm

Wed May 5, 11:05am

Wed May 5, 10:04am

Wed May 5, 9:04am

Wed May 5, 8:04am

Wed May 5, 7:04am

Wed May 5, 6:05am

Wed May 5, 5:04am

Meta data:

ID: b41b5850-20ca-4914-9e2f-de78a0609de3
Link: https://api.weather.gov/products/b41b5850-20ca-4914-9e2f-de78a0609de3